This is the latest recevied weather packets stored in our database for station/object F4ETJ-1. If no packets are shown the sender has not sent any weather packets the latest 10 day(s).
| Time | Temp. | Humidity | Pressure | Rain* | Wind** | Luminosity | Snow |
|---|---|---|---|---|---|---|---|
| 1787840520 | 26.11° C | 58% | 1006.7 hPa | 0 mm | - | - | - |
| 1787840159 | 26.11° C | 59% | 1006.7 hPa | 0 mm | - | - | - |
| 1787839799 | 26.11° C | 59% | 1006.5 hPa | 0 mm | - | - | - |
| 1787839439 | 26.67° C | 58% | 1006.5 hPa | 0 mm | - | - | - |
| 1787839078 | 26.11° C | 58% | 1006.6 hPa | 0 mm | - | - | - |
| 1787838718 | 25.56° C | 58% | 1006.8 hPa | 0 mm | - | - | - |
| 1787838358 | 25.56° C | 58% | 1006.8 hPa | 0 mm | - | - | - |
| 1787837997 | 25.56° C | 60% | 1006.6 hPa | 0 mm | - | - | - |
| 1787837637 | 25° C | 59% | 1006.6 hPa | 0 mm | - | - | - |
| 1787837277 | 25° C | 60% | 1006.6 hPa | 0 mm | - | - | - |
| 1787836916 | 25° C | 63% | 1006.7 hPa | 0 mm | - | - | - |
| 1787836556 | 25° C | 62% | 1006.8 hPa | 0 mm | - | - | - |
| 1787836196 | 25° C | 64% | 1006.9 hPa | 0 mm | - | - | - |
| 1787835835 | 24.44° C | 68% | 1006.9 hPa | 0 mm | - | - | - |
| 1787835475 | 24.44° C | 70% | 1006.9 hPa | 0 mm | - | - | - |
| 1787835115 | 24.44° C | 70% | 1006.9 hPa | 0 mm | - | - | - |
| 1787834754 | 23.89° C | 69% | 1007.1 hPa | 0 mm | - | - | - |
| 1787834394 | 23.89° C | 70% | 1007 hPa | 0 mm | - | - | - |
| 1787834034 | 23.89° C | 71% | 1006.9 hPa | 0 mm | - | - | - |
| 1787833673 | 23.89° C | 72% | 1007 hPa | 0 mm | - | - | - |
| 1787833313 | 23.33° C | 73% | 1007.1 hPa | 0 mm | - | - | - |
| 1787832953 | 23.33° C | 74% | 1007 hPa | 0 mm | - | - | - |
| 1787832592 | 22.78° C | 74% | 1007.1 hPa | 0 mm | - | - | - |
| 1787832232 | 22.78° C | 75% | 1007.2 hPa | 0 mm | - | - | - |
| 1787831872 | 22.22° C | 74% | 1007.3 hPa | 0 mm | - | - | - |
* Rain latest hour (hover to see other rain measurements)
** Current wind speed in m/s (hover to see current wind gust speed)